Time,TemperatureF,DewpointF,PressureIn,WindDirection,WindDirectionDegrees,WindSpeedMPH,WindSpeedGustMPH,Humidity,HourlyPrecipIn,Conditions,Clouds,dailyrainin,SoftwareType,DateUTC
2013-01-29 00:04:00,68.5,65.4,29.96,ESE,111,2.0,4.0,90,0.00,,,0.00,Wunderground v.1.15,2013-01-29 06:04:00,
2013-01-29 00:10:00,68.3,65.6,29.96,East,98,4.0,4.0,91,0.00,,,0.00,Wunderground v.1.15,2013-01-29 06:10:00,
2013-01-29 00:15:00,68.1,65.4,29.95,East,94,4.0,6.0,91,0.00,,,0.00,Wunderground v.1.15,2013-01-29 06:15:00,
2013-01-29 00:20:00,67.9,65.5,29.95,SE,136,3.0,3.0,92,0.00,,,0.00,Wunderground v.1.15,2013-01-29 06:20:00,
2013-01-29 00:26:00,67.8,65.4,29.95,South,170,1.0,7.0,92,0.00,,,0.00,Wunderground v.1.15,2013-01-29 06:26:00,
2013-01-29 00:31:00,67.7,65.6,29.95,ESE,123,4.0,5.0,93,0.00,,,0.00,Wunderground v.1.15,2013-01-29 06:31:00,
2013-01-29 00:37:00,67.6,65.5,29.94,ESE,120,6.0,6.0,93,0.00,,,0.00,Wunderground v.1.15,2013-01-29 06:37:00,
2013-01-29 00:42:00,67.5,65.4,29.94,East,83,4.0,4.0,93,0.00,,,0.00,Wunderground v.1.15,2013-01-29 06:42:00,
2013-01-29 00:47:00,67.5,65.4,29.94,ESE,121,6.0,6.0,93,0.00,,,0.01,Wunderground v.1.15,2013-01-29 06:47:00,
2013-01-29 00:52:00,67.5,65.7,29.93,East,96,4.0,7.0,94,0.00,,,0.01,Wunderground v.1.15,2013-01-29 06:52:00,
2013-01-29 00:57:00,67.4,65.6,29.92,ESE,103,6.0,7.0,94,0.00,,,0.01,Wunderground v.1.15,2013-01-29 06:57:00,
2013-01-29 01:02:00,67.4,65.6,29.92,SSE,153,5.0,5.0,94,0.00,,,0.01,Wunderground v.1.15,2013-01-29 07:02:00,
2013-01-29 01:07:00,67.4,65.6,29.92,SSE,167,1.0,5.0,94,0.00,,,0.01,Wunderground v.1.15,2013-01-29 07:07:00,
2013-01-29 01:13:00,67.5,65.7,29.92,ESE,117,4.0,5.0,94,0.00,,,0.01,Wunderground v.1.15,2013-01-29 07:13:00,
2013-01-29 01:18:00,67.5,65.7,29.92,ESE,112,1.0,12.0,94,0.00,,,0.01,Wunderground v.1.15,2013-01-29 07:18:00,
2013-01-29 01:24:00,67.6,65.8,29.93,SE,128,5.0,6.0,94,0.00,,,0.01,Wunderground v.1.15,2013-01-29 07:24:00,
2013-01-29 01:29:00,67.7,65.9,29.92,SE,124,4.0,6.0,94,0.00,,,0.01,Wunderground v.1.15,2013-01-29 07:29:00,
2013-01-29 01:34:00,67.7,65.9,29.92,SSE,153,3.0,7.0,94,0.00,,,0.01,Wunderground v.1.15,2013-01-29 07:34:00,
2013-01-29 01:40:00,67.8,66.0,29.92,ESE,106,2.0,3.0,94,0.00,,,0.01,Wunderground v.1.15,2013-01-29 07:40:00,
2013-01-29 01:46:00,67.8,66.0,29.92,ESE,120,0.0,3.0,94,0.00,,,0.01,Wunderground v.1.15,2013-01-29 07:46:00,
2013-01-29 01:51:00,67.9,66.1,29.92,ESE,117,1.0,5.0,94,0.00,,,0.01,Wunderground v.1.15,2013-01-29 07:51:00,
2013-01-29 01:57:00,67.9,66.1,29.92,ESE,116,4.0,5.0,94,0.00,,,0.01,Wunderground v.1.15,2013-01-29 07:57:00,
2013-01-29 02:02:00,68.0,66.2,29.92,ESE,120,2.0,5.0,94,0.00,,,0.01,Wunderground v.1.15,2013-01-29 08:02:00,
2013-01-29 02:07:00,68.1,66.3,29.92,SSE,150,6.0,6.0,94,0.00,,,0.01,Wunderground v.1.15,2013-01-29 08:07:00,
2013-01-29 02:12:00,68.2,66.4,29.92,SE,136,4.0,5.0,94,0.00,,,0.01,Wunderground v.1.15,2013-01-29 08:12:00,
2013-01-29 02:17:00,68.4,66.6,29.92,SE,136,3.0,7.0,94,0.00,,,0.01,Wunderground v.1.15,2013-01-29 08:17:00,
2013-01-29 02:22:00,68.4,66.3,29.92,ESE,103,1.0,7.0,93,0.00,,,0.01,Wunderground v.1.15,2013-01-29 08:22:00,
2013-01-29 02:27:00,68.5,66.4,29.91,East,87,7.0,8.0,93,0.00,,,0.01,Wunderground v.1.15,2013-01-29 08:27:00,
2013-01-29 02:32:00,68.6,66.5,29.92,ESE,117,6.0,9.0,93,0.00,,,0.01,Wunderground v.1.15,2013-01-29 08:32:00,
2013-01-29 02:37:00,68.7,66.6,29.92,East,99,3.0,9.0,93,0.00,,,0.01,Wunderground v.1.15,2013-01-29 08:37:00,
2013-01-29 02:42:00,68.8,66.7,29.92,SW,225,2.0,5.0,93,0.00,,,0.01,Wunderground v.1.15,2013-01-29 08:42:00,
2013-01-29 02:47:00,68.8,66.7,29.92,SE,131,3.0,8.0,93,0.00,,,0.01,Wunderground v.1.15,2013-01-29 08:47:00,
2013-01-29 02:52:00,68.8,66.7,29.92,ESE,123,0.0,5.0,93,0.00,,,0.01,Wunderground v.1.15,2013-01-29 08:52:00,
2013-01-29 02:57:00,68.8,66.7,29.92,SSW,195,5.0,10.0,93,0.00,,,0.01,Wunderground v.1.15,2013-01-29 08:57:00,
2013-01-29 03:02:00,68.9,66.8,29.92,ESE,117,2.0,8.0,93,0.00,,,0.01,Wunderground v.1.15,2013-01-29 09:02:00,
2013-01-29 03:07:00,68.8,66.7,29.91,SE,127,2.0,8.0,93,0.00,,,0.01,Wunderground v.1.15,2013-01-29 09:07:00,
2013-01-29 03:13:00,68.9,66.8,29.91,ESE,112,9.0,9.0,93,0.00,,,0.01,Wunderground v.1.15,2013-01-29 09:13:00,
2013-01-29 03:18:00,68.9,66.8,29.90,ESE,115,2.0,10.0,93,0.00,,,0.01,Wunderground v.1.15,2013-01-29 09:18:00,
2013-01-29 03:23:00,68.8,66.7,29.90,East,99,4.0,10.0,93,0.00,,,0.01,Wunderground v.1.15,2013-01-29 09:23:00,
2013-01-29 03:28:00,68.7,66.6,29.90,East,91,4.0,10.0,93,0.00,,,0.01,Wunderground v.1.15,2013-01-29 09:28:00,
2013-01-29 03:33:00,68.6,66.5,29.90,East,92,3.0,8.0,93,0.00,,,0.01,Wunderground v.1.15,2013-01-29 09:33:00,
2013-01-29 03:38:00,68.5,66.4,29.90,ESE,103,4.0,8.0,93,0.00,,,0.01,Wunderground v.1.15,2013-01-29 09:38:00,
2013-01-29 03:43:00,68.4,66.6,29.89,East,97,7.0,7.0,94,0.00,,,0.01,Wunderground v.1.15,2013-01-29 09:43:00,
2013-01-29 03:48:00,68.4,66.6,29.89,SE,136,7.0,8.0,94,0.00,,,0.01,Wunderground v.1.15,2013-01-29 09:48:00,
2013-01-29 03:53:00,68.4,66.6,29.89,East,87,3.0,7.0,94,0.00,,,0.01,Wunderground v.1.15,2013-01-29 09:53:00,
2013-01-29 03:58:00,68.4,66.6,29.89,SE,134,2.0,7.0,94,0.00,,,0.01,Wunderground v.1.15,2013-01-29 09:58:00,
2013-01-29 04:03:00,68.4,66.6,29.89,ESE,106,1.0,6.0,94,0.00,,,0.01,Wunderground v.1.15,2013-01-29 10:03:00,
2013-01-29 04:08:00,68.4,66.6,29.88,East,81,3.0,8.0,94,0.00,,,0.01,Wunderground v.1.15,2013-01-29 10:08:00,
2013-01-29 04:13:00,68.4,66.6,29.88,ESE,114,3.0,11.0,94,0.00,,,0.01,Wunderground v.1.15,2013-01-29 10:13:00,
2013-01-29 04:18:00,68.4,66.6,29.88,East,97,6.0,11.0,94,0.00,,,0.01,Wunderground v.1.15,2013-01-29 10:18:00,
2013-01-29 04:23:00,68.4,66.6,29.88,East,95,7.0,9.0,94,0.00,,,0.01,Wunderground v.1.15,2013-01-29 10:23:00,
2013-01-29 04:28:00,68.4,66.6,29.87,ENE,78,5.0,10.0,94,0.00,,,0.01,Wunderground v.1.15,2013-01-29 10:28:00,
2013-01-29 04:34:00,68.4,66.6,29.87,East,86,6.0,12.0,94,0.00,,,0.01,Wunderground v.1.15,2013-01-29 10:34:00,
2013-01-29 04:39:00,68.4,66.6,29.86,SSE,165,4.0,12.0,94,0.00,,,0.01,Wunderground v.1.15,2013-01-29 10:39:00,
2013-01-29 04:44:00,68.4,66.6,29.86,SE,145,5.0,11.0,94,0.00,,,0.01,Wunderground v.1.15,2013-01-29 10:44:00,
2013-01-29 04:49:00,68.5,66.7,29.86,East,82,3.0,12.0,94,0.00,,,0.01,Wunderground v.1.15,2013-01-29 10:49:00,
2013-01-29 04:54:00,68.5,66.7,29.87,SE,129,7.0,12.0,94,0.00,,,0.01,Wunderground v.1.15,2013-01-29 10:54:00,
2013-01-29 04:59:00,68.6,66.8,29.86,SSE,148,5.0,12.0,94,0.00,,,0.01,Wunderground v.1.15,2013-01-29 10:59:00,
2013-01-29 05:04:00,68.6,66.8,29.87,SE,142,2.0,10.0,94,0.00,,,0.01,Wunderground v.1.15,2013-01-29 11:04:00,
2013-01-29 05:09:00,68.6,66.5,29.86,ESE,102,9.0,10.0,93,0.00,,,0.01,Wunderground v.1.15,2013-01-29 11:09:00,
2013-01-29 05:14:00,68.6,66.5,29.87,ESE,103,6.0,8.0,93,0.00,,,0.01,Wunderground v.1.15,2013-01-29 11:14:00,
2013-01-29 05:19:00,68.7,66.6,29.87,East,89,3.0,9.0,93,0.00,,,0.01,Wunderground v.1.15,2013-01-29 11:19:00,
2013-01-29 05:24:00,68.7,66.6,29.87,ENE,63,4.0,9.0,93,0.00,,,0.01,Wunderground v.1.15,2013-01-29 11:24:00,
2013-01-29 05:29:00,68.7,66.6,29.86,SE,129,8.0,9.0,93,0.00,,,0.01,Wunderground v.1.15,2013-01-29 11:29:00,
2013-01-29 05:34:00,68.8,66.7,29.86,East,80,8.0,8.0,93,0.00,,,0.01,Wunderground v.1.15,2013-01-29 11:34:00,
2013-01-29 05:39:00,68.8,66.7,29.86,NE,55,5.0,8.0,93,0.00,,,0.01,Wunderground v.1.15,2013-01-29 11:39:00,
2013-01-29 05:44:00,68.8,66.7,29.86,SE,128,2.0,10.0,93,0.00,,,0.01,Wunderground v.1.15,2013-01-29 11:44:00,
2013-01-29 05:49:00,68.8,66.7,29.86,East,98,3.0,10.0,93,0.00,,,0.01,Wunderground v.1.15,2013-01-29 11:49:00,
2013-01-29 05:54:00,68.9,66.8,29.86,SE,124,5.0,8.0,93,0.00,,,0.01,Wunderground v.1.15,2013-01-29 11:54:00,
2013-01-29 05:59:00,68.9,66.8,29.86,ESE,114,7.0,8.0,93,0.00,,,0.01,Wunderground v.1.15,2013-01-29 11:59:00,
2013-01-29 06:04:00,68.9,66.8,29.87,ESE,115,4.0,7.0,93,0.00,,,0.01,Wunderground v.1.15,2013-01-29 12:04:00,
2013-01-29 06:09:00,68.9,66.5,29.87,SW,219,2.0,9.0,92,0.00,,,0.01,Wunderground v.1.15,2013-01-29 12:09:00,
2013-01-29 06:14:00,69.0,66.6,29.86,East,91,3.0,9.0,92,0.00,,,0.01,Wunderground v.1.15,2013-01-29 12:14:00,
2013-01-29 06:19:00,69.0,66.6,29.86,East,99,5.0,9.0,92,0.00,,,0.01,Wunderground v.1.15,2013-01-29 12:19:00,
2013-01-29 06:24:00,69.1,66.7,29.86,ENE,72,6.0,13.0,92,0.00,,,0.01,Wunderground v.1.15,2013-01-29 12:24:00,
2013-01-29 06:29:00,69.2,66.8,29.86,ENE,76,2.0,13.0,92,0.00,,,0.01,Wunderground v.1.15,2013-01-29 12:29:00,
2013-01-29 06:35:00,69.3,66.9,29.86,ESE,114,3.0,9.0,92,0.00,,,0.01,Wunderground v.1.15,2013-01-29 12:35:00,
2013-01-29 06:40:00,69.4,67.0,29.86,SE,129,4.0,4.0,92,0.00,,,0.01,Wunderground v.1.15,2013-01-29 12:40:00,
2013-01-29 06:45:00,69.4,66.7,29.86,NE,46,0.0,5.0,91,0.00,,,0.01,Wunderground v.1.15,2013-01-29 12:45:00,
2013-01-29 06:50:00,69.4,66.7,29.86,SE,125,1.0,3.0,91,0.00,,,0.01,Wunderground v.1.15,2013-01-29 12:50:00,
2013-01-29 06:55:00,69.4,66.7,29.86,ESE,115,4.0,8.0,91,0.00,,,0.01,Wunderground v.1.15,2013-01-29 12:55:00,
2013-01-29 07:00:00,69.4,66.7,29.86,SE,145,9.0,9.0,91,0.00,,,0.01,Wunderground v.1.15,2013-01-29 13:00:00,
2013-01-29 07:05:00,69.4,66.7,29.85,ESE,106,3.0,11.0,91,0.00,,,0.01,Wunderground v.1.15,2013-01-29 13:05:00,
2013-01-29 07:10:00,69.5,66.8,29.85,ESE,117,5.0,6.0,91,0.00,,,0.01,Wunderground v.1.15,2013-01-29 13:10:00,
2013-01-29 07:15:00,69.6,66.9,29.85,ESE,108,4.0,12.0,91,0.00,,,0.01,Wunderground v.1.15,2013-01-29 13:15:00,
2013-01-29 07:20:00,69.6,66.9,29.86,South,179,2.0,5.0,91,0.00,,,0.01,Wunderground v.1.15,2013-01-29 13:20:00,
2013-01-29 07:25:00,69.7,67.0,29.86,SE,136,4.0,11.0,91,0.00,,,0.01,Wunderground v.1.15,2013-01-29 13:25:00,
2013-01-29 07:30:00,69.7,67.0,29.85,East,97,4.0,6.0,91,0.00,,,0.01,Wunderground v.1.15,2013-01-29 13:30:00,
2013-01-29 07:35:00,69.7,67.0,29.85,SE,136,5.0,13.0,91,0.00,,,0.01,Wunderground v.1.15,2013-01-29 13:35:00,
2013-01-29 07:40:00,69.8,66.7,29.84,East,86,3.0,5.0,90,0.00,,,0.01,Wunderground v.1.15,2013-01-29 13:40:00,
2013-01-29 07:45:00,69.8,66.7,29.84,ENE,75,3.0,12.0,90,0.00,,,0.01,Wunderground v.1.15,2013-01-29 13:45:00,
2013-01-29 07:50:00,69.9,66.8,29.84,East,93,4.0,5.0,90,0.00,,,0.01,Wunderground v.1.15,2013-01-29 13:50:00,
2013-01-29 07:55:00,70.0,66.9,29.84,SE,140,4.0,9.0,90,0.00,,,0.01,Wunderground v.1.15,2013-01-29 13:55:00,
2013-01-29 08:00:00,70.1,66.7,29.83,South,172,8.0,8.0,89,0.00,,,0.01,Wunderground v.1.15,2013-01-29 14:00:00,
2013-01-29 08:05:00,70.3,66.9,29.83,East,79,4.0,11.0,89,0.00,,,0.01,Wunderground v.1.15,2013-01-29 14:05:00,
2013-01-29 08:10:00,70.4,66.7,29.84,NNW,347,3.0,11.0,88,0.00,,,0.01,Wunderground v.1.15,2013-01-29 14:10:00,
2013-01-29 08:15:00,70.4,66.7,29.83,SE,139,4.0,11.0,88,0.00,,,0.01,Wunderground v.1.15,2013-01-29 14:15:00,
2013-01-29 08:20:00,70.5,66.8,29.84,ESE,115,7.0,10.0,88,0.00,,,0.01,Wunderground v.1.15,2013-01-29 14:20:00,
2013-01-29 08:25:00,70.5,66.8,29.83,East,96,10.0,11.0,88,0.00,,,0.01,Wunderground v.1.15,2013-01-29 14:25:00,
2013-01-29 08:30:00,70.6,66.9,29.83,ESE,108,3.0,12.0,88,0.00,,,0.01,Wunderground v.1.15,2013-01-29 14:30:00,
2013-01-29 08:36:00,70.7,66.6,29.83,South,185,4.0,13.0,87,0.00,,,0.01,Wunderground v.1.15,2013-01-29 14:36:00,
2013-01-29 08:41:00,70.7,66.6,29.83,ENE,67,9.0,9.0,87,0.00,,,0.01,Wunderground v.1.15,2013-01-29 14:41:00,
2013-01-29 08:46:00,70.6,66.9,29.83,ENE,72,3.0,11.0,88,0.00,,,0.01,Wunderground v.1.15,2013-01-29 14:46:00,
2013-01-29 08:51:00,70.5,66.8,29.83,East,98,8.0,13.0,88,0.00,,,0.01,Wunderground v.1.15,2013-01-29 14:51:00,
2013-01-29 08:56:00,70.4,66.7,29.83,SSW,210,7.0,15.0,88,0.00,,,0.01,Wunderground v.1.15,2013-01-29 14:56:00,
2013-01-29 09:01:00,70.3,66.9,29.82,East,92,5.0,9.0,89,0.00,,,0.01,Wunderground v.1.15,2013-01-29 15:01:00,
2013-01-29 09:06:00,70.3,66.9,29.82,East,91,12.0,14.0,89,0.00,,,0.01,Wunderground v.1.15,2013-01-29 15:06:00,
2013-01-29 09:11:00,70.3,66.9,29.82,ESE,103,4.0,11.0,89,0.00,,,0.01,Wunderground v.1.15,2013-01-29 15:11:00,
2013-01-29 09:16:00,70.5,67.1,29.82,East,100,7.0,16.0,89,0.00,,,0.01,Wunderground v.1.15,2013-01-29 15:16:00,
2013-01-29 09:21:00,70.7,67.0,29.82,ESE,122,3.0,20.0,88,0.00,,,0.01,Wunderground v.1.15,2013-01-29 15:21:00,
2013-01-29 09:26:00,70.9,67.2,29.81,ENE,75,8.0,20.0,88,0.00,,,0.01,Wunderground v.1.15,2013-01-29 15:26:00,
2013-01-29 09:31:00,71.1,67.4,29.80,SE,131,8.0,11.0,88,0.00,,,0.01,Wunderground v.1.15,2013-01-29 15:31:00,
2013-01-29 09:36:00,71.3,67.2,29.80,East,94,12.0,13.0,87,0.00,,,0.01,Wunderground v.1.15,2013-01-29 15:36:00,
2013-01-29 09:41:00,71.3,67.2,29.81,SE,146,5.0,9.0,87,0.00,,,0.01,Wunderground v.1.15,2013-01-29 15:41:00,
2013-01-29 09:46:00,71.3,66.9,29.81,SE,124,4.0,14.0,86,0.00,,,0.01,Wunderground v.1.15,2013-01-29 15:46:00,
2013-01-29 09:51:00,71.3,66.9,29.80,ENE,75,3.0,8.0,86,0.00,,,0.01,Wunderground v.1.15,2013-01-29 15:51:00,
2013-01-29 09:56:00,71.6,67.2,29.80,ENE,61,7.0,17.0,86,0.00,,,0.01,Wunderground v.1.15,2013-01-29 15:56:00,
2013-01-29 10:01:00,71.8,67.4,29.79,ESE,115,7.0,13.0,86,0.00,,,0.01,Wunderground v.1.15,2013-01-29 16:01:00,
2013-01-29 10:06:00,72.2,67.4,29.79,East,96,9.0,20.0,85,0.00,,,0.01,Wunderground v.1.15,2013-01-29 16:06:00,
2013-01-29 10:11:00,72.2,67.4,29.78,SSE,160,6.0,18.0,85,0.00,,,0.01,Wunderground v.1.15,2013-01-29 16:11:00,
2013-01-29 10:16:00,72.3,67.5,29.78,ESE,115,3.0,18.0,85,0.00,,,0.01,Wunderground v.1.15,2013-01-29 16:16:00,
2013-01-29 10:21:00,72.5,67.4,29.78,ESE,103,5.0,12.0,84,0.00,,,0.01,Wunderground v.1.15,2013-01-29 16:21:00,
2013-01-29 10:27:00,72.8,67.3,29.77,East,94,13.0,18.0,83,0.00,,,0.01,Wunderground v.1.15,2013-01-29 16:27:00,
2013-01-29 10:32:00,72.9,67.4,29.77,SE,129,7.0,11.0,83,0.00,,,0.01,Wunderground v.1.15,2013-01-29 16:32:00,
2013-01-29 10:37:00,73.0,67.2,29.76,SE,138,7.0,15.0,82,0.00,,,0.01,Wunderground v.1.15,2013-01-29 16:37:00,
2013-01-29 10:42:00,73.0,67.2,29.76,East,88,10.0,21.0,82,0.00,,,0.01,Wunderground v.1.15,2013-01-29 16:42:00,
2013-01-29 10:47:00,73.1,67.3,29.77,SSW,212,8.0,21.0,82,0.00,,,0.01,Wunderground v.1.15,2013-01-29 16:47:00,
2013-01-29 10:52:00,73.2,67.4,29.76,ESE,117,4.0,20.0,82,0.00,,,0.01,Wunderground v.1.15,2013-01-29 16:52:00,
2013-01-29 10:57:00,73.3,67.1,29.76,ESE,108,7.0,21.0,81,0.00,,,0.01,Wunderground v.1.15,2013-01-29 16:57:00,
2013-01-29 11:02:00,73.3,67.1,29.76,SSW,198,14.0,15.0,81,0.00,,,0.01,Wunderground v.1.15,2013-01-29 17:02:00,
2013-01-29 11:07:00,73.5,66.9,29.75,SSW,203,6.0,15.0,80,0.00,,,0.01,Wunderground v.1.15,2013-01-29 17:07:00,
2013-01-29 11:12:00,74.0,67.4,29.74,East,100,13.0,21.0,80,0.00,,,0.01,Wunderground v.1.15,2013-01-29 17:12:00,
2013-01-29 11:17:00,74.0,67.1,29.73,ENE,58,6.0,21.0,79,0.00,,,0.01,Wunderground v.1.15,2013-01-29 17:17:00,
2013-01-29 11:22:00,73.9,67.0,29.72,ESE,123,7.0,15.0,79,0.00,,,0.01,Wunderground v.1.15,2013-01-29 17:22:00,
2013-01-29 11:27:00,74.0,67.1,29.72,East,94,5.0,15.0,79,0.00,,,0.01,Wunderground v.1.15,2013-01-29 17:27:00,
2013-01-29 11:32:00,74.2,67.3,29.72,East,101,7.0,12.0,79,0.00,,,0.01,Wunderground v.1.15,2013-01-29 17:32:00,
2013-01-29 11:37:00,74.4,67.5,29.72,ESE,123,2.0,19.0,79,0.00,,,0.01,Wunderground v.1.15,2013-01-29 17:37:00,
2013-01-29 11:42:00,74.4,67.1,29.72,SSW,210,5.0,17.0,78,0.00,,,0.01,Wunderground v.1.15,2013-01-29 17:42:00,
2013-01-29 11:47:00,74.3,67.0,29.73,SSE,159,7.0,17.0,78,0.00,,,0.01,Wunderground v.1.15,2013-01-29 17:47:00,
2013-01-29 11:52:00,74.2,66.9,29.73,WSW,240,7.0,18.0,78,0.00,,,0.01,Wunderground v.1.15,2013-01-29 17:52:00,
2013-01-29 11:57:00,74.2,66.9,29.73,ENE,67,6.0,21.0,78,0.00,,,0.01,Wunderground v.1.15,2013-01-29 17:57:00,
2013-01-29 12:02:00,74.3,66.6,29.73,SSW,195,12.0,22.0,77,0.00,,,0.01,Wunderground v.1.15,2013-01-29 18:02:00,
2013-01-29 12:07:00,74.3,66.6,29.73,NNW,342,3.0,22.0,77,0.00,,,0.01,Wunderground v.1.15,2013-01-29 18:07:00,
2013-01-29 12:12:00,74.3,66.6,29.73,East,89,7.0,13.0,77,0.00,,,0.01,Wunderground v.1.15,2013-01-29 18:12:00,
2013-01-29 12:17:00,74.1,66.8,29.73,NNE,19,1.0,14.0,78,0.00,,,0.01,Wunderground v.1.15,2013-01-29 18:17:00,
2013-01-29 12:22:00,73.9,66.6,29.72,SSE,157,5.0,13.0,78,0.00,,,0.01,Wunderground v.1.15,2013-01-29 18:22:00,
2013-01-29 12:27:00,73.9,66.6,29.72,South,176,9.0,17.0,78,0.00,,,0.01,Wunderground v.1.15,2013-01-29 18:27:00,
2013-01-29 12:32:00,74.0,66.7,29.72,SSE,148,9.0,11.0,78,0.00,,,0.01,Wunderground v.1.15,2013-01-29 18:32:00,
2013-01-29 12:38:00,73.9,66.6,29.71,SSW,202,5.0,15.0,78,0.00,,,0.01,Wunderground v.1.15,2013-01-29 18:38:00,
2013-01-29 12:43:00,74.0,66.7,29.70,SSE,158,4.0,11.0,78,0.00,,,0.01,Wunderground v.1.15,2013-01-29 18:43:00,
2013-01-29 12:48:00,74.0,66.7,29.69,SW,222,4.0,17.0,78,0.00,,,0.01,Wunderground v.1.15,2013-01-29 18:48:00,
2013-01-29 12:53:00,74.0,67.1,29.68,WSW,238,14.0,14.0,79,0.00,,,0.01,Wunderground v.1.15,2013-01-29 18:53:00,
2013-01-29 12:58:00,74.3,67.4,29.68,ESE,112,7.0,17.0,79,0.00,,,0.01,Wunderground v.1.15,2013-01-29 18:58:00,
2013-01-29 13:03:00,74.8,67.1,29.67,SW,225,6.0,18.0,77,0.00,,,0.01,Wunderground v.1.15,2013-01-29 19:03:00,
2013-01-29 13:08:00,75.1,67.0,29.67,East,95,5.0,18.0,76,0.00,,,0.01,Wunderground v.1.15,2013-01-29 19:08:00,
2013-01-29 13:13:00,75.4,67.3,29.66,NE,44,6.0,10.0,76,0.00,,,0.01,Wunderground v.1.15,2013-01-29 19:13:00,
2013-01-29 13:18:00,75.6,67.5,29.65,SE,138,6.0,16.0,76,0.00,,,0.01,Wunderground v.1.15,2013-01-29 19:18:00,
2013-01-29 13:23:00,75.9,67.0,29.66,ESE,106,8.0,14.0,74,0.00,,,0.01,Wunderground v.1.15,2013-01-29 19:23:00,
2013-01-29 13:28:00,76.1,67.2,29.65,SSW,198,10.0,14.0,74,0.00,,,0.01,Wunderground v.1.15,2013-01-29 19:28:00,
2013-01-29 13:33:00,76.1,66.8,29.65,South,190,7.0,20.0,73,0.00,,,0.01,Wunderground v.1.15,2013-01-29 19:33:00,
2013-01-29 13:38:00,76.2,66.9,29.63,North,9,3.0,20.0,73,0.00,,,0.01,Wunderground v.1.15,2013-01-29 19:38:00,
2013-01-29 13:43:00,76.4,66.7,29.64,East,93,8.0,17.0,72,0.00,,,0.01,Wunderground v.1.15,2013-01-29 19:43:00,
2013-01-29 13:48:00,76.6,66.9,29.63,SSE,148,12.0,24.0,72,0.00,,,0.01,Wunderground v.1.15,2013-01-29 19:48:00,
2013-01-29 13:53:00,76.7,67.0,29.63,SE,124,4.0,19.0,72,0.00,,,0.01,Wunderground v.1.15,2013-01-29 19:53:00,
2013-01-29 13:57:00,76.6,66.9,29.62,SE,140,7.0,19.0,72,0.00,,,0.01,Wunderground v.1.15,2013-01-29 19:57:00,
2013-01-29 14:02:00,76.5,66.8,29.62,SSE,162,2.0,12.0,72,0.00,,,0.01,Wunderground v.1.15,2013-01-29 20:02:00,
2013-01-29 14:07:00,76.4,67.1,29.62,SSE,156,5.0,16.0,73,0.00,,,0.01,Wunderground v.1.15,2013-01-29 20:07:00,
2013-01-29 14:13:00,76.4,67.1,29.61,ESE,104,17.0,19.0,73,0.00,,,0.01,Wunderground v.1.15,2013-01-29 20:13:00,
2013-01-29 14:18:00,76.4,66.7,29.61,East,81,10.0,19.0,72,0.00,,,0.01,Wunderground v.1.15,2013-01-29 20:18:00,
2013-01-29 14:23:00,76.4,66.7,29.61,ESE,117,10.0,17.0,72,0.00,,,0.01,Wunderground v.1.15,2013-01-29 20:23:00,
2013-01-29 14:28:00,76.4,66.7,29.60,East,79,10.0,22.0,72,0.00,,,0.01,Wunderground v.1.15,2013-01-29 20:28:00,
2013-01-29 14:33:00,76.5,66.8,29.60,SE,129,3.0,11.0,72,0.00,,,0.01,Wunderground v.1.15,2013-01-29 20:33:00,
2013-01-29 14:38:00,76.6,66.9,29.60,ENE,75,5.0,14.0,72,0.00,,,0.01,Wunderground v.1.15,2013-01-29 20:38:00,
2013-01-29 14:43:00,76.6,66.9,29.59,ESE,112,9.0,18.0,72,0.00,,,0.01,Wunderground v.1.15,2013-01-29 20:43:00,
2013-01-29 14:48:00,76.8,67.1,29.59,SE,132,15.0,18.0,72,0.00,,,0.01,Wunderground v.1.15,2013-01-29 20:48:00,
2013-01-29 14:53:00,77.0,67.3,29.59,ESE,121,5.0,15.0,72,0.00,,,0.01,Wunderground v.1.15,2013-01-29 20:53:00,
2013-01-29 14:58:00,77.2,67.5,29.59,East,94,10.0,15.0,72,0.00,,,0.01,Wunderground v.1.15,2013-01-29 20:58:00,
2013-01-29 15:03:00,77.2,67.1,29.59,ENE,70,7.0,19.0,71,0.00,,,0.01,Wunderground v.1.15,2013-01-29 21:03:00,
2013-01-29 15:08:00,77.0,66.9,29.60,NE,38,3.0,19.0,71,0.00,,,0.01,Wunderground v.1.15,2013-01-29 21:08:00,
2013-01-29 15:13:00,77.1,67.4,29.59,SE,145,6.0,16.0,72,0.00,,,0.01,Wunderground v.1.15,2013-01-29 21:13:00,
2013-01-29 15:18:00,77.1,67.4,29.59,WSW,249,2.0,16.0,72,0.00,,,0.01,Wunderground v.1.15,2013-01-29 21:18:00,
2013-01-29 15:23:00,77.2,67.5,29.58,East,101,6.0,16.0,72,0.00,,,0.01,Wunderground v.1.15,2013-01-29 21:23:00,
2013-01-29 15:28:00,77.2,67.5,29.58,ESE,117,3.0,16.0,72,0.00,,,0.01,Wunderground v.1.15,2013-01-29 21:28:00,
2013-01-29 15:33:00,77.3,67.2,29.57,SSE,164,7.0,15.0,71,0.00,,,0.01,Wunderground v.1.15,2013-01-29 21:33:00,
2013-01-29 15:38:00,77.5,67.4,29.57,NNE,18,2.0,20.0,71,0.00,,,0.01,Wunderground v.1.15,2013-01-29 21:38:00,
2013-01-29 15:43:00,77.9,67.3,29.56,East,82,7.0,13.0,70,0.00,,,0.01,Wunderground v.1.15,2013-01-29 21:43:00,
2013-01-29 15:48:00,77.7,67.1,29.56,SE,124,10.0,18.0,70,0.00,,,0.01,Wunderground v.1.15,2013-01-29 21:48:00,
2013-01-29 15:53:00,77.5,66.9,29.57,SSE,162,7.0,14.0,70,0.00,,,0.01,Wunderground v.1.15,2013-01-29 21:53:00,
2013-01-29 15:58:00,77.5,67.4,29.56,SSW,197,10.0,18.0,71,0.00,,,0.01,Wunderground v.1.15,2013-01-29 21:58:00,
2013-01-29 16:03:00,77.5,67.4,29.56,SW,222,11.0,21.0,71,0.00,,,0.01,Wunderground v.1.15,2013-01-29 22:03:00,
2013-01-29 16:08:00,77.4,67.3,29.57,East,96,7.0,21.0,71,0.00,,,0.01,Wunderground v.1.15,2013-01-29 22:08:00,
2013-01-29 16:13:00,77.3,67.2,29.57,SSE,167,6.0,14.0,71,0.00,,,0.01,Wunderground v.1.15,2013-01-29 22:13:00,
2013-01-29 16:18:00,77.3,67.2,29.56,SE,126,6.0,15.0,71,0.00,,,0.01,Wunderground v.1.15,2013-01-29 22:18:00,
2013-01-29 16:23:00,77.3,67.2,29.57,East,80,8.0,12.0,71,0.00,,,0.01,Wunderground v.1.15,2013-01-29 22:23:00,
2013-01-29 16:28:00,77.3,67.2,29.57,WNW,296,4.0,15.0,71,0.00,,,0.01,Wunderground v.1.15,2013-01-29 22:28:00,
2013-01-29 16:33:00,77.4,67.3,29.57,SSE,165,4.0,16.0,71,0.00,,,0.01,Wunderground v.1.15,2013-01-29 22:33:00,
2013-01-29 16:38:00,77.5,66.9,29.56,ESE,122,7.0,16.0,70,0.00,,,0.01,Wunderground v.1.15,2013-01-29 22:38:00,
2013-01-29 16:43:00,77.5,66.9,29.57,ESE,105,7.0,16.0,70,0.00,,,0.01,Wunderground v.1.15,2013-01-29 22:43:00,
2013-01-29 16:48:00,77.4,66.8,29.57,ESE,112,3.0,20.0,70,0.00,,,0.01,Wunderground v.1.15,2013-01-29 22:48:00,
2013-01-29 16:53:00,77.4,66.8,29.57,East,89,4.0,13.0,70,0.00,,,0.01,Wunderground v.1.15,2013-01-29 22:53:00,
2013-01-29 16:58:00,77.3,66.7,29.57,SSW,210,4.0,13.0,70,0.00,,,0.01,Wunderground v.1.15,2013-01-29 22:58:00,
2013-01-29 17:03:00,77.2,66.7,29.56,East,91,7.0,11.0,70,0.00,,,0.01,Wunderground v.1.15,2013-01-29 23:03:00,
2013-01-29 17:08:00,77.0,66.9,29.57,SSW,211,2.0,13.0,71,0.00,,,0.01,Wunderground v.1.15,2013-01-29 23:08:00,
2013-01-29 17:13:00,76.8,66.7,29.57,ENE,70,8.0,19.0,71,0.00,,,0.01,Wunderground v.1.15,2013-01-29 23:13:00,
2013-01-29 17:18:00,76.7,66.6,29.57,ENE,70,1.0,19.0,71,0.00,,,0.01,Wunderground v.1.15,2013-01-29 23:18:00,
2013-01-29 17:23:00,76.5,66.8,29.57,SSE,162,8.0,14.0,72,0.00,,,0.01,Wunderground v.1.15,2013-01-29 23:23:00,
2013-01-29 17:28:00,76.3,66.6,29.57,East,80,4.0,16.0,72,0.00,,,0.01,Wunderground v.1.15,2013-01-29 23:28:00,
2013-01-29 17:33:00,76.2,66.5,29.57,ESE,109,8.0,12.0,72,0.00,,,0.01,Wunderground v.1.15,2013-01-29 23:33:00,
2013-01-29 17:38:00,76.1,66.8,29.57,SE,145,5.0,14.0,73,0.00,,,0.01,Wunderground v.1.15,2013-01-29 23:38:00,
2013-01-29 17:43:00,75.9,66.6,29.57,SSE,162,6.0,9.0,73,0.00,,,0.01,Wunderground v.1.15,2013-01-29 23:43:00,
2013-01-29 17:48:00,75.7,66.8,29.57,SSE,148,3.0,11.0,74,0.00,,,0.01,Wunderground v.1.15,2013-01-29 23:48:00,
2013-01-29 17:53:00,75.6,66.7,29.57,ESE,114,2.0,9.0,74,0.00,,,0.01,Wunderground v.1.15,2013-01-29 23:53:00,
2013-01-29 17:58:00,75.5,66.6,29.57,ESE,120,4.0,13.0,74,0.00,,,0.01,Wunderground v.1.15,2013-01-29 23:58:00,
2013-01-29 18:03:00,75.3,66.8,29.56,SSE,159,5.0,10.0,75,0.00,,,0.01,Wunderground v.1.15,2013-01-30 00:03:00,
2013-01-29 18:08:00,75.2,66.7,29.59,WNW,283,4.0,10.0,75,0.00,,,0.01,Wunderground v.1.15,2013-01-30 00:08:00,
2013-01-29 18:13:00,73.0,56.9,29.63,West,280,12.0,19.0,57,0.00,,,0.01,Wunderground v.1.15,2013-01-30 00:13:00,
2013-01-29 18:19:00,69.1,53.7,29.64,WNW,283,3.0,19.0,58,0.00,,,0.01,Wunderground v.1.15,2013-01-30 00:19:00,
2013-01-29 18:24:00,67.0,53.5,29.63,WNW,285,2.0,14.0,62,0.00,,,0.01,Wunderground v.1.15,2013-01-30 00:24:00,
2013-01-29 18:29:00,65.5,54.2,29.65,West,260,3.0,15.0,67,0.00,,,0.01,Wunderground v.1.15,2013-01-30 00:29:00,
2013-01-29 18:36:00,62.6,55.6,29.65,SW,235,3.0,10.0,78,0.57,,,0.06,Wunderground v.1.15,2013-01-30 00:36:00,
2013-01-29 18:41:00,60.5,55.6,29.67,SW,235,8.0,8.0,84,0.18,,,0.07,Wunderground v.1.15,2013-01-30 00:41:00,
2013-01-29 18:46:00,59.3,55.4,29.67,West,270,4.0,11.0,87,0.31,,,0.09,Wunderground v.1.15,2013-01-30 00:46:00,
2013-01-29 18:51:00,58.7,55.5,29.68,WNW,285,1.0,5.0,89,0.73,,,0.12,Wunderground v.1.15,2013-01-30 00:51:00,
2013-01-29 18:56:00,58.2,55.3,29.68,West,269,1.0,8.0,90,0.34,,,0.17,Wunderground v.1.15,2013-01-30 00:56:00,
2013-01-29 19:01:00,57.9,55.3,29.69,WNW,291,4.0,4.0,91,0.16,,,0.18,Wunderground v.1.15,2013-01-30 01:01:00,
2013-01-29 19:06:00,57.7,55.4,29.68,WSW,249,1.0,5.0,92,0.11,,,0.19,Wunderground v.1.15,2013-01-30 01:06:00,
2013-01-29 19:11:00,57.6,55.3,29.69,NNW,330,1.0,3.0,92,0.28,,,0.21,Wunderground v.1.15,2013-01-30 01:11:00,
2013-01-29 19:16:00,57.5,55.2,29.69,WNW,291,0.0,4.0,92,0.17,,,0.22,Wunderground v.1.15,2013-01-30 01:16:00,
2013-01-29 19:21:00,57.5,55.5,29.70,West,274,0.0,1.0,93,0.07,,,0.22,Wunderground v.1.15,2013-01-30 01:21:00,
2013-01-29 19:26:00,57.5,55.5,29.71,West,278,1.0,3.0,93,0.04,,,0.22,Wunderground v.1.15,2013-01-30 01:26:00,
2013-01-29 19:31:00,57.5,55.5,29.70,NW,308,4.0,7.0,93,0.22,,,0.24,Wunderground v.1.15,2013-01-30 01:31:00,
2013-01-29 19:36:00,57.5,55.5,29.70,West,269,2.0,7.0,93,0.12,,,0.25,Wunderground v.1.15,2013-01-30 01:36:00,
2013-01-29 19:41:00,57.5,55.5,29.72,WSW,238,5.0,5.0,93,0.28,,,0.27,Wunderground v.1.15,2013-01-30 01:41:00,
2013-01-29 19:46:00,57.5,55.5,29.72,WNW,294,1.0,5.0,93,0.42,,,0.30,Wunderground v.1.15,2013-01-30 01:46:00,
2013-01-29 19:51:00,57.5,55.5,29.73,West,269,1.0,3.0,93,0.15,,,0.31,Wunderground v.1.15,2013-01-30 01:51:00,
2013-01-29 19:56:00,57.5,55.2,29.72,North,9,2.0,9.0,92,0.06,,,0.31,Wunderground v.1.15,2013-01-30 01:56:00,
2013-01-29 20:01:00,57.5,55.2,29.73,West,271,1.0,4.0,92,0.06,,,0.32,Wunderground v.1.15,2013-01-30 02:01:00,
2013-01-29 20:06:00,57.5,55.2,29.74,SW,225,1.0,6.0,92,0.10,,,0.33,Wunderground v.1.15,2013-01-30 02:06:00,
2013-01-29 20:11:00,57.5,55.2,29.75,WSW,240,1.0,4.0,92,0.28,,,0.01,Wunderground v.1.15,2013-01-30 02:11:00,
2013-01-29 20:16:00,57.3,55.0,29.73,West,263,7.0,9.0,92,0.33,,,0.04,Wunderground v.1.15,2013-01-30 02:16:00,
2013-01-29 20:21:00,57.1,54.8,29.75,NW,304,4.0,7.0,92,0.19,,,0.06,Wunderground v.1.15,2013-01-30 02:21:00,
2013-01-29 20:26:00,57.0,54.4,29.77,SE,132,2.0,7.0,91,0.18,,,0.07,Wunderground v.1.15,2013-01-30 02:26:00,
2013-01-29 20:31:00,56.8,54.2,29.78,WSW,255,2.0,3.0,91,0.20,,,0.09,Wunderground v.1.15,2013-01-30 02:31:00,
2013-01-29 20:37:00,56.5,53.9,29.75,WNW,288,1.0,4.0,91,0.23,,,0.11,Wunderground v.1.15,2013-01-30 02:37:00,
2013-01-29 20:42:00,56.3,53.7,29.73,North,8,0.0,2.0,91,0.11,,,0.11,Wunderground v.1.15,2013-01-30 02:42:00,
2013-01-29 20:47:00,56.0,53.7,29.72,North,8,1.0,2.0,92,0.08,,,0.12,Wunderground v.1.15,2013-01-30 02:47:00,
2013-01-29 20:52:00,55.7,53.4,29.71,North,8,0.0,0.0,92,0.08,,,0.12,Wunderground v.1.15,2013-01-30 02:52:00,
2013-01-29 20:57:00,55.4,53.1,29.71,WNW,288,0.0,1.0,92,0.05,,,0.12,Wunderground v.1.15,2013-01-30 02:57:00,
2013-01-29 21:02:00,55.3,53.3,29.73,SSW,212,0.0,1.0,93,0.00,,,0.12,Wunderground v.1.15,2013-01-30 03:02:00,
2013-01-29 21:07:00,55.3,53.3,29.74,SE,145,1.0,1.0,93,0.00,,,0.12,Wunderground v.1.15,2013-01-30 03:07:00,
2013-01-29 21:12:00,55.4,53.7,29.77,SW,215,0.0,1.0,94,0.00,,,0.12,Wunderground v.1.15,2013-01-30 03:12:00,
2013-01-29 21:17:00,55.3,53.3,29.73,ENE,74,0.0,3.0,93,0.00,,,0.12,Wunderground v.1.15,2013-01-30 03:17:00,
2013-01-29 21:22:00,55.3,53.6,29.76,SSW,194,2.0,2.0,94,0.00,,,0.12,Wunderground v.1.15,2013-01-30 03:22:00,
2013-01-29 21:27:00,55.3,53.6,29.75,SSW,207,0.0,2.0,94,0.00,,,0.12,Wunderground v.1.15,2013-01-30 03:27:00,
2013-01-29 21:32:00,55.3,53.6,29.76,South,184,0.0,1.0,94,0.00,,,0.12,Wunderground v.1.15,2013-01-30 03:32:00,
2013-01-29 21:37:00,55.2,53.5,29.76,SW,215,0.0,1.0,94,0.00,,,0.12,Wunderground v.1.15,2013-01-30 03:37:00,
2013-01-29 21:42:00,55.2,53.5,29.76,SW,215,0.0,0.0,94,0.00,,,0.12,Wunderground v.1.15,2013-01-30 03:42:00,
2013-01-29 21:47:00,55.1,53.7,29.76,SW,216,0.0,0.0,95,0.00,,,0.12,Wunderground v.1.15,2013-01-30 03:47:00,
2013-01-29 21:52:00,55.1,53.7,29.75,SW,215,0.0,0.0,95,0.00,,,0.12,Wunderground v.1.15,2013-01-30 03:52:00,
2013-01-29 21:57:00,54.9,53.5,29.76,SW,218,0.0,0.0,95,0.00,,,0.12,Wunderground v.1.15,2013-01-30 03:57:00,
2013-01-29 22:02:00,54.9,53.5,29.77,SSW,207,0.0,0.0,95,0.00,,,0.12,Wunderground v.1.15,2013-01-30 04:02:00,
2013-01-29 22:07:00,54.7,53.0,29.77,SE,142,1.0,2.0,94,0.00,,,0.12,Wunderground v.1.15,2013-01-30 04:07:00,
2013-01-29 22:12:00,54.5,52.8,29.76,ESE,120,0.0,1.0,94,0.00,,,0.13,Wunderground v.1.15,2013-01-30 04:12:00,
2013-01-29 22:17:00,54.4,53.0,29.76,ESE,120,0.0,1.0,95,0.00,,,0.13,Wunderground v.1.15,2013-01-30 04:17:00,
2013-01-29 22:22:00,54.3,52.9,29.80,SE,146,1.0,2.0,95,0.00,,,0.13,Wunderground v.1.15,2013-01-30 04:22:00,
2013-01-29 22:27:00,54.2,52.5,29.79,SE,130,0.0,2.0,94,0.00,,,0.13,Wunderground v.1.15,2013-01-30 04:27:00,
2013-01-29 22:32:00,54.1,52.4,29.78,SSW,192,0.0,1.0,94,0.00,,,0.13,Wunderground v.1.15,2013-01-30 04:32:00,
2013-01-29 22:37:00,54.1,52.4,29.80,SE,127,0.0,1.0,94,0.00,,,0.13,Wunderground v.1.15,2013-01-30 04:37:00,
2013-01-29 22:42:00,53.9,52.2,29.77,SE,138,1.0,2.0,94,0.00,,,0.13,Wunderground v.1.15,2013-01-30 04:42:00,
2013-01-29 22:47:00,53.8,52.1,29.77,SE,129,0.0,2.0,94,0.00,,,0.13,Wunderground v.1.15,2013-01-30 04:47:00,
2013-01-29 22:52:00,53.6,51.9,29.76,SW,221,0.0,1.0,94,0.00,,,0.13,Wunderground v.1.15,2013-01-30 04:52:00,
2013-01-29 22:57:00,53.6,51.9,29.81,SE,128,2.0,6.0,94,0.00,,,0.13,Wunderground v.1.15,2013-01-30 04:57:00,
2013-01-29 23:00:00,53.5,51.8,29.79,WSW,246,1.0,1.0,94,0.00,,,0.13,Wunderground v.1.15,2013-01-30 05:00:00,
2013-01-29 23:01:00,53.5,51.8,29.79,South,179,1.0,2.0,94,0.00,,,0.13,Wunderground v.1.15,2013-01-30 05:01:00,
2013-01-29 23:03:00,53.4,51.4,29.78,SW,229,1.0,3.0,93,0.00,,,0.13,Wunderground v.1.15,2013-01-30 05:03:00,
2013-01-29 23:08:00,53.4,51.4,29.77,West,281,0.0,3.0,93,0.00,,,0.13,Wunderground v.1.15,2013-01-30 05:08:00,
2013-01-29 23:13:00,53.1,51.1,29.77,WSW,253,0.0,1.0,93,0.00,,,0.13,Wunderground v.1.15,2013-01-30 05:13:00,
2013-01-29 23:18:00,52.9,51.2,29.78,WSW,253,0.0,1.0,94,0.00,,,0.13,Wunderground v.1.15,2013-01-30 05:18:00,
2013-01-29 23:23:00,52.8,50.8,29.80,SSE,156,1.0,3.0,93,0.00,,,0.13,Wunderground v.1.15,2013-01-30 05:23:00,
2013-01-29 23:28:00,52.6,50.6,29.80,South,181,0.0,3.0,93,0.00,,,0.13,Wunderground v.1.15,2013-01-30 05:28:00,
2013-01-29 23:33:00,52.8,50.5,29.80,WSW,250,1.0,3.0,92,0.00,,,0.13,Wunderground v.1.15,2013-01-30 05:33:00,
2013-01-29 23:38:00,52.8,50.2,29.80,SSW,202,1.0,3.0,91,0.00,,,0.13,Wunderground v.1.15,2013-01-30 05:38:00,
2013-01-29 23:43:00,52.9,50.0,29.80,SW,215,1.0,3.0,90,0.00,,,0.13,Wunderground v.1.15,2013-01-30 05:43:00,
2013-01-29 23:48:00,52.7,49.5,29.79,WSW,238,1.0,3.0,89,0.00,,,0.13,Wunderground v.1.15,2013-01-30 05:48:00,
2013-01-29 23:53:00,52.5,49.7,29.79,SW,218,0.0,1.0,90,0.00,,,0.13,Wunderground v.1.15,2013-01-30 05:53:00,
2013-01-29 23:58:00,52.1,49.6,29.79,SSE,162,1.0,1.0,91,0.00,,,0.13,Wunderground v.1.15,2013-01-30 05:58:00,